This is the latest recevied weather packets stored in our database for station/object SQ3MKP-13. If no packets are shown the sender has not sent any weather packets the latest 10 day(s).
| Time | Temp. | Humidity | Pressure | Rain* | Wind** | Luminosity | Snow |
|---|---|---|---|---|---|---|---|
| 1777829820 | 24.44° C | 26% | 1001.5 hPa | - | - | 26 W/m² | - |
| 1777829518 | 24.44° C | 26% | 1001.5 hPa | - | - | 31 W/m² | - |
| 1777829218 | 24.44° C | 26% | 1001.4 hPa | - | - | 34 W/m² | - |
| 1777828917 | 25° C | 26% | 1001.5 hPa | - | - | 37 W/m² | - |
| 1777828616 | 25° C | 26% | 1001.4 hPa | - | - | 39 W/m² | - |
| 1777828314 | 25.56° C | 25% | 1001.5 hPa | - | - | 47 W/m² | - |
| 1777828014 | 25.56° C | 25% | 1001.5 hPa | - | - | 51 W/m² | - |
| 1777827713 | 25.56° C | 24% | 1001.5 hPa | - | - | 53 W/m² | - |
| 1777827412 | 25.56° C | 24% | 1001.5 hPa | - | - | 51 W/m² | - |
| 1777827111 | 25.56° C | 24% | 1001.5 hPa | - | - | 44 W/m² | - |
| 1777826810 | 25.56° C | 24% | 1001.5 hPa | - | - | 49 W/m² | - |
| 1777826509 | 25.56° C | 24% | 1001.6 hPa | - | - | 41 W/m² | - |
| 1777826208 | 26.11° C | 23% | 1001.6 hPa | - | - | 45 W/m² | - |
| 1777825907 | 26.11° C | 24% | 1001.6 hPa | - | - | 47 W/m² | - |
| 1777825606 | 26.67° C | 23% | 1001.6 hPa | - | - | 54 W/m² | - |
| 1777825001 | 26.67° C | 23% | 1001.7 hPa | - | - | 110 W/m² | - |
| 1777824700 | 26.67° C | 23% | 1001.6 hPa | - | - | 121 W/m² | - |
| 1777824399 | 27.22° C | 23% | 1001.7 hPa | - | - | 134 W/m² | - |
| 1777824097 | 26.67° C | 23% | 1001.7 hPa | - | - | 142 W/m² | - |
| 1777823797 | 27.22° C | 23% | 1001.8 hPa | - | - | 150 W/m² | - |
| 1777823496 | 27.22° C | 22% | 1001.8 hPa | - | - | 159 W/m² | - |
| 1777823195 | 27.22° C | 23% | 1001.7 hPa | - | - | 176 W/m² | - |
| 1777822894 | 27.22° C | 23% | 1001.8 hPa | - | - | 186 W/m² | - |
| 1777822593 | 27.22° C | 23% | 1001.9 hPa | - | - | 177 W/m² | - |
| 1777822291 | 27.78° C | 22% | 1001.8 hPa | - | - | 211 W/m² | - |
* Rain since midnight (hover to see other rain measurements)
** Current wind speed in m/s (hover to see current wind gust speed)